This is the latest recevied weather packets stored in our database for station/object EA5JUX. If no packets are shown the sender has not sent any weather packets the latest 10 day(s).
| Time | Temp. | Humidity | Pressure | Rain* | Wind** | Luminosity | Snow |
|---|---|---|---|---|---|---|---|
| 1778163736 | 16.11° C | 88% | 1009.7 hPa | 3.81 mm | - | - | - |
| 1778163436 | 16.11° C | 88% | 1009.8 hPa | 3.56 mm | - | - | - |
| 1778163136 | 16.11° C | 87% | 1009.9 hPa | 2.29 mm | - | - | - |
| 1778162836 | 16.67° C | 86% | 1009.8 hPa | 1.27 mm | - | - | - |
| 1778162556 | 16.67° C | 85% | 1009.7 hPa | 0.25 mm | - | - | - |
| 1778162237 | 16.67° C | 84% | 1009.6 hPa | 0 mm | - | - | - |
| 1778161937 | 16.67° C | 83% | 1009.4 hPa | 0 mm | - | - | - |
| 1778161637 | 17.22° C | 83% | 1009.4 hPa | 0 mm | - | - | - |
| 1778161337 | 17.22° C | 83% | 1009.4 hPa | 0 mm | - | - | - |
| 1778161037 | 17.78° C | 82% | 1009.4 hPa | 0 mm | - | - | - |
| 1778160757 | 17.78° C | 81% | 1009.6 hPa | 0 mm | - | - | - |
| 1778160437 | 17.78° C | 81% | 1009.5 hPa | 0 mm | - | - | - |
| 1778160137 | 17.22° C | 82% | 1009.6 hPa | 0 mm | - | - | - |
| 1778159837 | 18.33° C | 81% | 1009.7 hPa | 0 mm | - | - | - |
| 1778159545 | 17.78° C | 79% | 1009.9 hPa | 0 mm | - | - | - |
| 1778159237 | 17.22° C | 79% | 1009.7 hPa | 0 mm | - | - | - |
| 1778158936 | 17.22° C | 82% | 1009.9 hPa | 0 mm | - | - | - |
| 1778158637 | 16.11° C | 84% | 1009.8 hPa | 0 mm | - | - | - |
| 1778158336 | 16.67° C | 86% | 1010 hPa | 1.02 mm | - | - | - |
| 1778158037 | 16.67° C | 87% | 1009.9 hPa | 1.78 mm | - | - | - |
| 1778157737 | 16.67° C | 87% | 1010.1 hPa | 1.78 mm | - | - | - |
| 1778157437 | 16.67° C | 88% | 1009.9 hPa | 1.78 mm | - | - | - |
| 1778157159 | 16.67° C | 88% | 1010 hPa | 1.78 mm | - | - | - |
| 1778156837 | 16.11° C | 88% | 1010.2 hPa | 1.78 mm | - | - | - |
| 1778156550 | 16.67° C | 88% | 1010.2 hPa | 1.78 mm | - | - | - |
* Rain latest hour (hover to see other rain measurements)
** Current wind speed in m/s (hover to see current wind gust speed)